Weather in Kitsman

Ukraine / Chernovtci District     48°26′28″N   25°45′35″E
temp.,
°C
wind,
m/s
gust,
m/s
humid.,
%
clouds,
%
prec.,
mm/h
press.,
hPa
HPBL,
m
12 august, fri
fri1200:00+15nw22800 0.0 102016
03:00+14wnw228924 0.0 102022
06:00+14wnw2486100 0.1 1020120
09:00+18wnw457454 0.1 1020348
12:00+21nw4668100 0.1 1019648
15:00+23n4568100 0.4 10181071
18:00+20nne3886100 2.6 1018317
21:00+18n2292100 2.7 101835
13 august, sat
sat1300:00+18nnw229378 0.1 101731
03:00+16wnw229653 0.1 101625
06:00+16nw229799 0.0 101529
09:00+17wnw3494100 0.0 1015225
12:00+20nw448598 0.0 1014531
15:00+25n346053 0.0 10121289
18:00+25nne3463100 1.3 10101000
21:00+19nw2287100 6.3 101015
14 august, sun
sun1400:00+18nnw2396100 5.8 101087
03:00+17wnw3698100 6.1 1009160
06:00+17wnw3598100 0.0 1009147
09:00+19nw4592100 0.0 1009404
12:00+23nw3472100 0.0 1009866
15:00+26n3459100 0.0 10081269
18:00+26n345936 0.0 1008798
21:00+21ne0174100 0.1 100711
15 august, mon
mon1500:00+19sse118992 2.9 100812
03:00+17s019098 2.9 100711
06:00+17wnw0192100 0.2 100711
09:00+20wnw1182100 0.4 1007201
12:00+24nw216194 0.0 1007646
15:00+28nnw1149100 0.0 10061178
18:00+27ne114815 0.0 10061163
21:00+18wsw358027 0.3 100788
16 august, tue
tue1600:00+18sw11746 0.1 100814
03:00+17w22875 0.1 100721
06:00+17wsw22865 0.0 100716
09:00+21wsw22675 0.0 1008223
12:00+26w225058 0.1 1008629
15:00+30nw02385 0.1 10071566
18:00+26nnw345185 0.1 1007204
21:00+19wsw119081 4.9 100919